Location: Berlin
(38.3226°N, 75.2177°W)
Time: 22:18:28
(UTC+00:00)

Cosmos 2219 - Pass Details

Date: 26 October 2020
Orbit: 832 x 862 km, 71.1° (Epoch: 25 November)

Event Time Altitude Azimuth Distance (km) Brightness Sun altitude
Rises 00:05:33 0° 334° (NNW) 3,443 6.7 -23.5°
Reaches altitude 10° 00:08:02 10° 332° (NNW) 2,505 6.0 -24.0°
Maximum altitude 00:13:45 68° 251° (WSW) 924 3.5 -25.1°
Enters shadow 00:17:59 18° 172° (S) 1,958 5.0 -25.9°
